• In Hungary
  • List of Countries
  • For 7 days
  • Water Temperature
  • Satellite Maps
  • Weather Map
  • News
  • Weather Widgets
  • user-avatar
    Login

    Hourly Weather Santa Cruz de la Sierra

    Today, 18 June, Monday

    Time Temperature Precipitation Wind Pressure Humidity
    00:00 +15°C° 0 mm 2 mps 731 mmHg 56%
    01:00 +14°C° 0 mm 2 mps 731 mmHg 57%
    02:00 +14°C° 0 mm 2 mps 731 mmHg 58%
    03:00 +14°C° 0 mm 2 mps 731 mmHg 59%
    04:00 +13°C° 0 mm 2 mps 731 mmHg 60%
    05:00 +13°C° 0 mm 2 mps 730 mmHg 61%
    06:00 +14°C° 0 mm 2 mps 731 mmHg 59%
    07:00 +14°C° 0 mm 2 mps 731 mmHg 58%
    08:00 +15°C° 0 mm 2 mps 732 mmHg 56%
    09:00 +18°C° 0 mm 2 mps 732 mmHg 50%
    10:00 +20°C° 0 mm 2 mps 732 mmHg 45%
    11:00 +24°C° 0 mm 2 mps 732 mmHg 39%
    12:00 +25°C° 0 mm 2 mps 731 mmHg 38%
    13:00 +26°C° 0 mm 2 mps 731 mmHg 37%
    14:00 +28°C° 0 mm 1 mps 730 mmHg 36%
    15:00 +27°C° 0 mm 1 mps 729 mmHg 41%
    16:00 +26°C° 0 mm 1 mps 729 mmHg 45%
    17:00 +25°C° 0 mm 1 mps 728 mmHg 49%
    18:00 +23°C° 0 mm 1 mps 728 mmHg 54%
    19:00 +21°C° 0 mm 1 mps 729 mmHg 59%
    20:00 +19°C° 0 mm 1 mps 729 mmHg 64%
    21:00 +19°C° 0 mm 1 mps 729 mmHg 66%
    22:00 +19°C° 0 mm 1 mps 729 mmHg 67%
    23:00 +18°C° 0 mm 1 mps 729 mmHg 68%

    Tomorrow, 19 June, Tuesday

    Time Temperature Precipitation Wind Pressure Humidity
    00:00 +18°C° 0 mm 1 mps 729 mmHg 69%
    01:00 +18°C° 0 mm 1 mps 729 mmHg 69%
    02:00 +18°C° 0 mm 1 mps 728 mmHg 70%
    03:00 +16°C° 0 mm 1 mps 728 mmHg 71%
    04:00 +16°C° 0 mm 1 mps 728 mmHg 72%
    05:00 +16°C° 0 mm 1 mps 728 mmHg 73%
    06:00 +18°C° 0 mm 1 mps 728 mmHg 71%
    07:00 +16°C° 0 mm 0 mps 728 mmHg 69%
    08:00 +17°C° 0 mm 0 mps 729 mmHg 66%
    09:00 +22°C° 0 mm 1 mps 729 mmHg 59%
    10:00 +25°C° 0 mm 1 mps 729 mmHg 53%
    11:00 +28°C° 0 mm 1 mps 729 mmHg 46%
    12:00 +28°C° 0 mm 2 mps 728 mmHg 45%
    13:00 +29°C° 0 mm 2 mps 727 mmHg 43%
    14:00 +29°C° 0 mm 3 mps 727 mmHg 42%
    15:00 +28°C° 0 mm 2 mps 726 mmHg 45%
    16:00 +28°C° 0 mm 2 mps 726 mmHg 48%
    17:00 +27°C° 0 mm 2 mps 725 mmHg 51%
    18:00 +25°C° 0 mm 2 mps 725 mmHg 57%
    19:00 +23°C° 0 mm 2 mps 726 mmHg 63%
    20:00 +21°C° 0 mm 1 mps 726 mmHg 69%
    21:00 +21°C° 0 mm 1 mps 726 mmHg 69%
    22:00 +21°C° 0 mm 1 mps 726 mmHg 70%
    23:00 +20°C° 0 mm 1 mps 727 mmHg 70%

    Day after tomorrow, 20 June, Wednesday

    Time Temperature Precipitation Wind Pressure Humidity
    00:00 +20°C° 0 mm 1 mps 726 mmHg 71%
    01:00 +20°C° 0 mm 1 mps 726 mmHg 71%
    02:00 +19°C° 0 mm 1 mps 726 mmHg 71%
    03:00 +19°C° 0 mm 1 mps 726 mmHg 72%
    04:00 +19°C° 0 mm 1 mps 726 mmHg 73%
    05:00 +19°C° 0 mm 1 mps 725 mmHg 74%
    06:00 +18°C° 0 mm 2 mps 726 mmHg 72%
    07:00 +19°C° 0 mm 2 mps 726 mmHg 69%
    08:00 +20°C° 0 mm 2 mps 727 mmHg 66%
    09:00 +22°C° 0 mm 3 mps 727 mmHg 59%
    10:00 +26°C° 0 mm 3 mps 727 mmHg 51%
    11:00 +29°C° 0 mm 4 mps 727 mmHg 43%
    12:00 +29°C° 0 mm 4 mps 726 mmHg 41%
    13:00 +30°C° 0 mm 4 mps 726 mmHg 40%
    14:00 +32°C° 0 mm 5 mps 725 mmHg 38%
    15:00 +30°C° 0 mm 4 mps 725 mmHg 41%
    16:00 +29°C° 0 mm 3 mps 724 mmHg 43%
    17:00 +28°C° 0 mm 3 mps 724 mmHg 46%
    18:00 +26°C° 0 mm 2 mps 724 mmHg 51%
    19:00 +25°C° 0 mm 2 mps 725 mmHg 57%
    20:00 +23°C° 0 mm 1 mps 725 mmHg 63%
    21:00 +22°C° 0 mm 1 mps 725 mmHg 63%
    22:00 +22°C° 0 mm 1 mps 726 mmHg 64%
    23:00 +21°C° 0 mm 1 mps 726 mmHg 65%

    21 June, Thursday

    Time Temperature Precipitation Wind Pressure Humidity
    00:00 +20°C° 0 mm 2 mps 726 mmHg 66%
    01:00 +20°C° 0 mm 2 mps 725 mmHg 67%
    02:00 +20°C° 0 mm 2 mps 725 mmHg 68%
    03:00 +19°C° 0 mm 2 mps 725 mmHg 69%
    04:00 +19°C° 0 mm 2 mps 725 mmHg 70%
    05:00 +19°C° 0 mm 2 mps 725 mmHg 71%
    06:00 +20°C° 0 mm 2 mps 726 mmHg 69%
    07:00 +21°C° 0 mm 2 mps 726 mmHg 67%
    08:00 +21°C° 0 mm 3 mps 727 mmHg 64%
    09:00 +25°C° 0 mm 3 mps 727 mmHg 57%
    10:00 +27°C° 0 mm 4 mps 727 mmHg 49%
    11:00 +30°C° 0 mm 5 mps 727 mmHg 41%
    12:00 +30°C° 0 mm 5 mps 726 mmHg 40%
    13:00 +32°C° 0 mm 5 mps 725 mmHg 38%
    14:00 +33°C° 0 mm 5 mps 724 mmHg 36%
    15:00 +32°C° 0 mm 4 mps 724 mmHg 39%
    16:00 +30°C° 0 mm 4 mps 724 mmHg 41%
    17:00 +30°C° 0 mm 3 mps 723 mmHg 44%
    18:00 +28°C° 0 mm 2 mps 724 mmHg 50%
    19:00 +26°C° 0 mm 2 mps 724 mmHg 56%
    20:00 +24°C° 0 mm 1 mps 725 mmHg 62%
    21:00 +23°C° 0 mm 1 mps 725 mmHg 64%
    22:00 +23°C° 0 mm 1 mps 725 mmHg 66%
    23:00 +22°C° 0 mm 1 mps 726 mmHg 67%

    22 June, Friday

    Time Temperature Precipitation Wind Pressure Humidity
    00:00 +22°C° 0 mm 1 mps 726 mmHg 69%
    01:00 +21°C° 0 mm 1 mps 725 mmHg 70%
    02:00 +21°C° 0 mm 1 mps 725 mmHg 72%
    03:00 +21°C° 0 mm 1 mps 725 mmHg 74%
    04:00 +20°C° 0 mm 1 mps 725 mmHg 76%
    05:00 +20°C° 0 mm 1 mps 725 mmHg 78%
    06:00 +21°C° 0 mm 1 mps 726 mmHg 75%
    07:00 +22°C° 0 mm 1 mps 726 mmHg 72%
    08:00 +23°C° 0 mm 1 mps 727 mmHg 68%
    09:00 +25°C° 0 mm 2 mps 726 mmHg 60%
    10:00 +28°C° 0 mm 3 mps 726 mmHg 51%
    11:00 +32°C° 0 mm 4 mps 726 mmHg 42%
    12:00 +32°C° 0 mm 4 mps 725 mmHg 41%
    13:00 +33°C° 0 mm 5 mps 725 mmHg 39%
    14:00 +33°C° 0 mm 5 mps 724 mmHg 38%
    15:00 +33°C° 0 mm 4 mps 723 mmHg 40%
    16:00 +32°C° 0 mm 4 mps 723 mmHg 42%
    17:00 +30°C° 0 mm 3 mps 722 mmHg 45%
    18:00 +28°C° 0 mm 3 mps 722 mmHg 50%
    19:00 +26°C° 0 mm 2 mps 722 mmHg 56%
    20:00 +25°C° 0 mm 2 mps 723 mmHg 61%
    21:00 +24°C° 0 mm 2 mps 723 mmHg 64%
    22:00 +24°C° 0 mm 2 mps 723 mmHg 66%
    23:00 +23°C° 0 mm 2 mps 723 mmHg 68%

    23 June, Saturday

    Time Temperature Precipitation Wind Pressure Humidity
    00:00 +23°C° 0 mm 2 mps 723 mmHg 68%
    01:00 +22°C° 0 mm 3 mps 722 mmHg 69%
    02:00 +22°C° 0 mm 3 mps 722 mmHg 69%
    03:00 +22°C° 0 mm 3 mps 722 mmHg 69%
    04:00 +22°C° 0 mm 3 mps 722 mmHg 69%
    05:00 +22°C° 0 mm 3 mps 722 mmHg 69%
    06:00 +22°C° 0 mm 4 mps 722 mmHg 67%
    07:00 +23°C° 0 mm 4 mps 722 mmHg 66%
    08:00 +23°C° 0 mm 5 mps 723 mmHg 64%
    09:00 +26°C° 0 mm 6 mps 722 mmHg 58%
    10:00 +28°C° 0 mm 7 mps 722 mmHg 51%
    11:00 +30°C° 0 mm 7 mps 722 mmHg 45%
    12:00 +32°C° 0 mm 7 mps 721 mmHg 42%
    13:00 +33°C° 0 mm 7 mps 720 mmHg 40%
    14:00 +33°C° 0 mm 7 mps 719 mmHg 38%
    15:00 +33°C° 0 mm 7 mps 719 mmHg 39%
    16:00 +32°C° 0 mm 6 mps 719 mmHg 39%
    17:00 +32°C° 0 mm 5 mps 719 mmHg 40%
    18:00 +30°C° 0 mm 5 mps 719 mmHg 43%
    19:00 +29°C° 0 mm 4 mps 719 mmHg 46%
    20:00 +27°C° 0 mm 4 mps 720 mmHg 49%
    21:00 +27°C° 0 mm 4 mps 720 mmHg 51%
    22:00 +27°C° 0 mm 4 mps 721 mmHg 54%
    23:00 +26°C° 0 mm 4 mps 721 mmHg 57%
    Show more